{"data":{"norad_id":63316,"intl_designator":"2025-057K","name":"STARLINK-11645 [DTC]","alt_names":[],"object_type":"PAYLOAD","status":"ACTIVE","operator":null,"country":"US","launch_date":"2025-03-18","launch_site_code":"AFETR","launch_vehicle":null,"mission":null,"orbit_class":"UNKNOWN","rcs_meters":null,"size_class":null,"mass_kg":null,"dimensions":null,"purposes":["comms"],"wikipedia_slug":null,"has_3d_model":false,"image_url":null,"decayed_at":null,"tle_current":{"epoch":"2026-05-25T02:39:17.021088Z","epoch_age_seconds":55760,"freshness":"FRESH","line1":"1 63316U 25057K   26145.11061367  .00162035  00000+0  12412-2 0  9999","line2":"2 63316  43.0010 164.1563 0004317 294.1814  65.8602 15.70844776 69224","mean_motion":15.70844776,"eccentricity":0.0004317,"inclination_deg":43.001,"raan_deg":164.1563,"arg_perigee_deg":294.1814,"mean_anomaly_deg":65.8602,"bstar":0.0012412,"rev_number":6922,"period_min":91.670419763996,"perigee_km":353.57407613332,"apogee_km":359.38874566929,"semimajor_km":6734.6184109013,"source":"CELESTRAK","updated_at":"2026-05-25T13:38:19.957739Z"}}}